When you browse on this site, cookies collect data to enhance your experience and personalize the content and advertising you see.
Visit our Privacy Policy to learn more. By continuing to use the site, you agree to this use of cookies and data.
  • In Portugal
  • List of Countries
  • For 7 days
  • Water Temperature
  • Satellite Maps
  • Weather Map
  • Weather Widgets
  • user-avatar
    Login

    Hourly Weather Skarszewice

    Today, 27 March, Wednesday

    Time Temperature Precipitation Wind Pressure Humidity
    00:00 +2°C° 0 mm 1 mps 761 mmHg 82%
    01:00 -1°C° 0 mm 2 mps 761 mmHg 83%
    02:00 -1°C° 0 mm 2 mps 761 mmHg 85%
    03:00 -1°C° 0 mm 2 mps 761 mmHg 87%
    04:00 -1°C° 0 mm 3 mps 761 mmHg 89%
    05:00 0°C° 0 mm 3 mps 762 mmHg 84%
    06:00 +1°C° 0 mm 3 mps 762 mmHg 78%
    07:00 +1°C° 0 mm 3 mps 762 mmHg 73%
    08:00 +2°C° 0 mm 3 mps 762 mmHg 74%
    09:00 +4°C° 0 mm 4 mps 762 mmHg 76%
    10:00 +5°C° 0 mm 4 mps 762 mmHg 77%
    11:00 +5°C° 0.2 mm 4 mps 762 mmHg 78%
    12:00 +5°C° 0.2 mm 4 mps 762 mmHg 80%
    13:00 +6°C° 0.2 mm 5 mps 762 mmHg 81%
    14:00 +6°C° 0.2 mm 4 mps 762 mmHg 83%
    15:00 +6°C° 0.2 mm 4 mps 762 mmHg 85%
    16:00 +6°C° 0.2 mm 4 mps 762 mmHg 88%
    17:00 +5°C° 0.1 mm 4 mps 762 mmHg 90%
    18:00 +5°C° 0.1 mm 3 mps 762 mmHg 92%
    19:00 +5°C° 0.1 mm 3 mps 762 mmHg 94%
    20:00 +5°C° 0.1 mm 3 mps 762 mmHg 95%
    21:00 +5°C° 0.1 mm 3 mps 762 mmHg 96%
    22:00 +5°C° 0.1 mm 3 mps 762 mmHg 97%
    23:00 +6°C° 0.1 mm 2 mps 763 mmHg 97%

    Tomorrow, 28 March, Thursday

    Time Temperature Precipitation Wind Pressure Humidity
    00:00 +6°C° 0.1 mm 2 mps 763 mmHg 97%
    01:00 +6°C° 0.1 mm 2 mps 763 mmHg 98%
    02:00 +5°C° 0 mm 2 mps 763 mmHg 97%
    03:00 +5°C° 0 mm 2 mps 763 mmHg 97%
    04:00 +5°C° 0 mm 1 mps 764 mmHg 97%
    05:00 +5°C° 0 mm 1 mps 764 mmHg 96%
    06:00 +6°C° 0 mm 1 mps 764 mmHg 95%
    07:00 +6°C° 0 mm 1 mps 765 mmHg 94%
    08:00 +8°C° 0 mm 1 mps 765 mmHg 86%
    09:00 +9°C° 0 mm 1 mps 766 mmHg 78%
    10:00 +11°C° 0 mm 1 mps 766 mmHg 70%
    11:00 +12°C° 0 mm 1 mps 766 mmHg 66%
    12:00 +13°C° 0 mm 1 mps 766 mmHg 62%
    13:00 +13°C° 0 mm 2 mps 766 mmHg 58%
    14:00 +13°C° 0 mm 2 mps 766 mmHg 60%
    15:00 +13°C° 0 mm 2 mps 766 mmHg 61%
    16:00 +12°C° 0 mm 3 mps 766 mmHg 63%
    17:00 +10°C° 0 mm 2 mps 766 mmHg 70%
    18:00 +9°C° 0 mm 2 mps 767 mmHg 78%
    19:00 +7°C° 0 mm 2 mps 767 mmHg 86%
    20:00 +6°C° 0 mm 2 mps 767 mmHg 88%
    21:00 +6°C° 0 mm 2 mps 767 mmHg 91%
    22:00 +5°C° 0 mm 2 mps 767 mmHg 94%
    23:00 +5°C° 0 mm 2 mps 767 mmHg 94%

    Day after tomorrow, 29 March, Friday

    Time Temperature Precipitation Wind Pressure Humidity
    00:00 +4°C° 0 mm 3 mps 767 mmHg 95%
    01:00 +4°C° 0 mm 3 mps 767 mmHg 96%
    02:00 +4°C° 0 mm 3 mps 767 mmHg 97%
    03:00 +4°C° 0 mm 3 mps 767 mmHg 97%
    04:00 +4°C° 0 mm 3 mps 767 mmHg 97%
    05:00 +5°C° 0 mm 3 mps 767 mmHg 97%
    06:00 +5°C° 0 mm 3 mps 767 mmHg 96%
    07:00 +5°C° 0 mm 3 mps 767 mmHg 96%
    08:00 +8°C° 0 mm 3 mps 767 mmHg 89%
    09:00 +8°C° 0 mm 4 mps 767 mmHg 82%
    10:00 +11°C° 0 mm 4 mps 767 mmHg 76%
    11:00 +12°C° 0 mm 4 mps 766 mmHg 70%
    12:00 +13°C° 0 mm 4 mps 766 mmHg 65%
    13:00 +13°C° 0 mm 5 mps 766 mmHg 60%
    14:00 +13°C° 0 mm 5 mps 766 mmHg 61%
    15:00 +13°C° 0 mm 5 mps 765 mmHg 61%
    16:00 +13°C° 0 mm 5 mps 765 mmHg 62%
    17:00 +12°C° 0 mm 4 mps 765 mmHg 69%
    18:00 +10°C° 0 mm 3 mps 765 mmHg 77%
    19:00 +9°C° 0 mm 2 mps 764 mmHg 84%
    20:00 +9°C° 0 mm 2 mps 764 mmHg 86%
    21:00 +9°C° 0 mm 3 mps 764 mmHg 88%
    22:00 +8°C° 0 mm 3 mps 764 mmHg 90%
    23:00 +8°C° 0 mm 3 mps 764 mmHg 91%

    30 March, Saturday

    Time Temperature Precipitation Wind Pressure Humidity
    00:00 +8°C° 0 mm 3 mps 764 mmHg 91%
    01:00 +8°C° 0 mm 3 mps 764 mmHg 92%
    02:00 +7°C° 0 mm 3 mps 763 mmHg 93%
    03:00 +7°C° 0 mm 3 mps 763 mmHg 94%
    04:00 +7°C° 0 mm 3 mps 763 mmHg 95%
    05:00 +7°C° 0 mm 3 mps 763 mmHg 94%
    06:00 +7°C° 0 mm 3 mps 763 mmHg 92%
    07:00 +6°C° 0 mm 4 mps 763 mmHg 91%
    08:00 +8°C° 0 mm 4 mps 763 mmHg 83%
    09:00 +11°C° 0 mm 4 mps 762 mmHg 75%
    10:00 +12°C° 0 mm 5 mps 762 mmHg 68%
    11:00 +13°C° 0 mm 5 mps 762 mmHg 65%
    12:00 +14°C° 0 mm 5 mps 761 mmHg 63%
    13:00 +15°C° 0 mm 5 mps 761 mmHg 60%
    14:00 +15°C° 0 mm 4 mps 760 mmHg 61%
    15:00 +15°C° 0 mm 4 mps 759 mmHg 61%
    16:00 +16°C° 0 mm 3 mps 759 mmHg 61%
    17:00 +14°C° 0 mm 3 mps 758 mmHg 67%
    18:00 +13°C° 0 mm 2 mps 758 mmHg 72%
    19:00 +12°C° 0 mm 2 mps 757 mmHg 78%
    20:00 +12°C° 0 mm 2 mps 757 mmHg 80%
    21:00 +10°C° 0 mm 3 mps 757 mmHg 81%
    22:00 +10°C° 0 mm 3 mps 757 mmHg 83%
    23:00 +9°C° 0 mm 3 mps 756 mmHg 83%

    31 March, Sunday

    Time Temperature Precipitation Wind Pressure Humidity
    00:00 +9°C° 0 mm 3 mps 756 mmHg 83%
    01:00 +9°C° 0 mm 3 mps 755 mmHg 83%
    02:00 +9°C° 0.1 mm 3 mps 755 mmHg 84%
    03:00 +7°C° 0.1 mm 4 mps 754 mmHg 86%
    04:00 +7°C° 0.1 mm 4 mps 754 mmHg 87%
    05:00 +7°C° 0.1 mm 4 mps 754 mmHg 87%
    06:00 +7°C° 0.1 mm 5 mps 753 mmHg 87%
    07:00 +7°C° 0.1 mm 5 mps 753 mmHg 87%
    08:00 +7°C° 0 mm 6 mps 753 mmHg 84%
    09:00 +7°C° 0 mm 6 mps 753 mmHg 81%
    10:00 +6°C° 0 mm 7 mps 754 mmHg 78%
    11:00 +6°C° 0 mm 7 mps 754 mmHg 71%
    12:00 +6°C° 0 mm 8 mps 754 mmHg 65%
    13:00 +6°C° 0 mm 8 mps 755 mmHg 58%
    14:00 +5°C° 0 mm 8 mps 755 mmHg 61%
    15:00 +5°C° 0 mm 7 mps 756 mmHg 63%
    16:00 +4°C° 0 mm 7 mps 756 mmHg 65%
    17:00 +3°C° 0.1 mm 7 mps 757 mmHg 68%
    18:00 +2°C° 0.1 mm 6 mps 758 mmHg 71%
    19:00 +1°C° 0.1 mm 6 mps 759 mmHg 74%
    20:00 0°C° 0 mm 5 mps 759 mmHg 73%
    21:00 0°C° 0 mm 4 mps 760 mmHg 71%
    22:00 +1°C° 0 mm 3 mps 760 mmHg 69%
    23:00 0°C° 0 mm 3 mps 761 mmHg 71%

    1 April, Monday

    Time Temperature Precipitation Wind Pressure Humidity
    00:00 +1°C° 0 mm 2 mps 761 mmHg 72%
    01:00 +1°C° 0 mm 2 mps 761 mmHg 74%
    02:00 -1°C° 0 mm 2 mps 762 mmHg 75%
    03:00 -1°C° 0 mm 2 mps 762 mmHg 75%
    04:00 -1°C° 0 mm 2 mps 762 mmHg 76%
    05:00 +1°C° 0 mm 2 mps 763 mmHg 73%
    06:00 +1°C° 0 mm 2 mps 763 mmHg 70%
    07:00 +1°C° 0 mm 3 mps 763 mmHg 67%
    08:00 +2°C° 0 mm 3 mps 764 mmHg 61%
    09:00 +3°C° 0 mm 3 mps 764 mmHg 55%
    10:00 +4°C° 0 mm 3 mps 765 mmHg 49%
    11:00 +5°C° 0 mm 3 mps 764 mmHg 47%
    12:00 +5°C° 0 mm 3 mps 764 mmHg 45%
    13:00 +5°C° 0 mm 3 mps 764 mmHg 43%
    14:00 +5°C° 0 mm 3 mps 764 mmHg 44%
    15:00 +5°C° 0 mm 3 mps 763 mmHg 45%
    16:00 +5°C° 0 mm 3 mps 763 mmHg 45%
    17:00 +3°C° 0 mm 3 mps 763 mmHg 51%
    18:00 +3°C° 0 mm 2 mps 762 mmHg 57%
    19:00 +2°C° 0 mm 1 mps 762 mmHg 62%
    20:00 +2°C° 0 mm 1 mps 762 mmHg 64%
    21:00 +1°C° 0 mm 1 mps 762 mmHg 66%
    22:00 +1°C° 0 mm 1 mps 762 mmHg 68%
    23:00 +1°C° 0 mm 1 mps 761 mmHg 68%
    Show more